When you browse on this site, cookies collect data to enhance your experience and personalize the content and advertising you see.
Visit our Privacy Policy to learn more. By continuing to use the site, you agree to this use of cookies and data.

Hourly Weather Kiel

Today, 4 August, Tuesday

Time Temperature Precipitation Wind Pressure Humidity
00:00 +11°C° 0 mm 3 mps 759 mmHg 90%
01:00 +11°C° 0 mm 3 mps 759 mmHg 92%
02:00 +10°C° 0 mm 3 mps 759 mmHg 93%
03:00 +10°C° 0 mm 2 mps 759 mmHg 93%
04:00 +10°C° 0 mm 2 mps 759 mmHg 93%
05:00 +12°C° 0 mm 2 mps 759 mmHg 89%
06:00 +13°C° 0 mm 2 mps 759 mmHg 85%
07:00 +14°C° 0 mm 2 mps 759 mmHg 80%
08:00 +16°C° 0 mm 2 mps 759 mmHg 73%
09:00 +17°C° 0 mm 2 mps 760 mmHg 66%
10:00 +19°C° 0 mm 2 mps 760 mmHg 59%
11:00 +19°C° 0 mm 3 mps 760 mmHg 57%
12:00 +20°C° 0 mm 3 mps 760 mmHg 56%
13:00 +20°C° 0 mm 3 mps 760 mmHg 54%
14:00 +20°C° 0.1 mm 3 mps 760 mmHg 54%
15:00 +20°C° 0.1 mm 4 mps 760 mmHg 54%
16:00 +20°C° 0.1 mm 4 mps 760 mmHg 54%
17:00 +19°C° 0 mm 4 mps 760 mmHg 58%
18:00 +18°C° 0 mm 4 mps 760 mmHg 63%
19:00 +17°C° 0 mm 3 mps 760 mmHg 68%
20:00 +14°C° 0 mm 3 mps 760 mmHg 72%
21:00 +13°C° 0 mm 3 mps 760 mmHg 77%
22:00 +12°C° 0 mm 2 mps 761 mmHg 82%
23:00 +12°C° 0 mm 2 mps 761 mmHg 81%

Tomorrow, 5 August, Wednesday

Time Temperature Precipitation Wind Pressure Humidity
00:00 +11°C° 0 mm 3 mps 761 mmHg 80%
01:00 +11°C° 0 mm 3 mps 761 mmHg 79%
02:00 +12°C° 0 mm 3 mps 760 mmHg 77%
03:00 +12°C° 0 mm 4 mps 760 mmHg 74%
04:00 +13°C° 0 mm 4 mps 760 mmHg 72%
05:00 +14°C° 0 mm 5 mps 760 mmHg 73%
06:00 +15°C° 0 mm 5 mps 760 mmHg 74%
07:00 +15°C° 0 mm 6 mps 760 mmHg 75%
08:00 +17°C° 0 mm 6 mps 761 mmHg 68%
09:00 +20°C° 0 mm 6 mps 761 mmHg 61%
10:00 +22°C° 0 mm 6 mps 761 mmHg 55%
11:00 +23°C° 0 mm 6 mps 761 mmHg 52%
12:00 +23°C° 0 mm 6 mps 761 mmHg 50%
13:00 +24°C° 0 mm 6 mps 761 mmHg 48%
14:00 +25°C° 0 mm 5 mps 761 mmHg 49%
15:00 +25°C° 0 mm 5 mps 761 mmHg 51%
16:00 +25°C° 0 mm 4 mps 761 mmHg 53%
17:00 +24°C° 0 mm 3 mps 761 mmHg 59%
18:00 +24°C° 0 mm 3 mps 761 mmHg 65%
19:00 +23°C° 0 mm 2 mps 762 mmHg 71%
20:00 +20°C° 0 mm 2 mps 762 mmHg 74%
21:00 +20°C° 0 mm 1 mps 763 mmHg 77%
22:00 +19°C° 0 mm 1 mps 763 mmHg 81%
23:00 +19°C° 0 mm 1 mps 763 mmHg 80%

Day after tomorrow, 6 August, Thursday

Time Temperature Precipitation Wind Pressure Humidity
00:00 +17°C° 0 mm 2 mps 763 mmHg 79%
01:00 +17°C° 0 mm 2 mps 763 mmHg 79%
02:00 +17°C° 0 mm 2 mps 763 mmHg 78%
03:00 +17°C° 0 mm 3 mps 763 mmHg 77%
04:00 +16°C° 0 mm 3 mps 764 mmHg 77%
05:00 +17°C° 0 mm 3 mps 764 mmHg 73%
06:00 +18°C° 0 mm 3 mps 764 mmHg 69%
07:00 +19°C° 0 mm 3 mps 764 mmHg 65%
08:00 +21°C° 0 mm 3 mps 764 mmHg 61%
09:00 +24°C° 0 mm 3 mps 765 mmHg 57%
10:00 +26°C° 0 mm 3 mps 765 mmHg 53%
11:00 +27°C° 0 mm 3 mps 765 mmHg 49%
12:00 +28°C° 0 mm 3 mps 765 mmHg 46%
13:00 +29°C° 0 mm 3 mps 765 mmHg 43%
14:00 +29°C° 0 mm 3 mps 765 mmHg 43%
15:00 +29°C° 0 mm 3 mps 765 mmHg 44%
16:00 +29°C° 0 mm 3 mps 765 mmHg 45%
17:00 +28°C° 0 mm 3 mps 765 mmHg 51%
18:00 +26°C° 0 mm 3 mps 765 mmHg 57%
19:00 +25°C° 0 mm 3 mps 765 mmHg 64%
20:00 +24°C° 0 mm 3 mps 765 mmHg 65%
21:00 +22°C° 0 mm 3 mps 766 mmHg 66%
22:00 +20°C° 0 mm 3 mps 766 mmHg 67%
23:00 +20°C° 0 mm 3 mps 766 mmHg 67%

7 August, Friday

Time Temperature Precipitation Wind Pressure Humidity
00:00 +19°C° 0 mm 3 mps 766 mmHg 67%
01:00 +19°C° 0 mm 3 mps 766 mmHg 68%
02:00 +18°C° 0 mm 3 mps 766 mmHg 68%
03:00 +18°C° 0 mm 2 mps 766 mmHg 68%
04:00 +18°C° 0 mm 2 mps 766 mmHg 68%
05:00 +19°C° 0 mm 2 mps 766 mmHg 67%
06:00 +19°C° 0 mm 2 mps 766 mmHg 66%
07:00 +20°C° 0 mm 2 mps 766 mmHg 66%
08:00 +23°C° 0 mm 2 mps 767 mmHg 62%
09:00 +24°C° 0 mm 3 mps 767 mmHg 58%
10:00 +26°C° 0 mm 3 mps 767 mmHg 54%
11:00 +27°C° 0 mm 3 mps 766 mmHg 51%
12:00 +27°C° 0 mm 4 mps 766 mmHg 49%
13:00 +28°C° 0 mm 4 mps 766 mmHg 47%
14:00 +28°C° 0 mm 5 mps 766 mmHg 48%
15:00 +27°C° 0 mm 5 mps 766 mmHg 49%
16:00 +27°C° 0 mm 5 mps 765 mmHg 50%
17:00 +26°C° 0 mm 5 mps 765 mmHg 56%
18:00 +23°C° 0 mm 4 mps 765 mmHg 62%
19:00 +22°C° 0 mm 4 mps 765 mmHg 68%
20:00 +21°C° 0 mm 4 mps 765 mmHg 73%
21:00 +20°C° 0 mm 4 mps 765 mmHg 77%
22:00 +20°C° 0 mm 4 mps 765 mmHg 82%
23:00 +19°C° 0 mm 4 mps 765 mmHg 83%

8 August, Saturday

Time Temperature Precipitation Wind Pressure Humidity
00:00 +19°C° 0 mm 4 mps 764 mmHg 84%
01:00 +19°C° 0 mm 3 mps 764 mmHg 85%
02:00 +19°C° 0 mm 3 mps 764 mmHg 84%
03:00 +19°C° 0 mm 3 mps 764 mmHg 84%
04:00 +19°C° 0 mm 3 mps 763 mmHg 83%
05:00 +20°C° 0 mm 3 mps 763 mmHg 81%
06:00 +21°C° 0 mm 3 mps 763 mmHg 79%
07:00 +22°C° 0 mm 3 mps 763 mmHg 77%
08:00 +25°C° 0 mm 3 mps 763 mmHg 72%
09:00 +26°C° 0 mm 3 mps 763 mmHg 68%
10:00 +28°C° 0 mm 3 mps 762 mmHg 63%
11:00 +29°C° 0 mm 3 mps 762 mmHg 59%
12:00 +30°C° 0 mm 3 mps 762 mmHg 55%
13:00 +31°C° 0 mm 3 mps 762 mmHg 52%
14:00 +31°C° 0 mm 3 mps 761 mmHg 51%
15:00 +31°C° 0 mm 3 mps 761 mmHg 51%
16:00 +31°C° 0 mm 3 mps 761 mmHg 51%
17:00 +30°C° 0 mm 2 mps 761 mmHg 57%
18:00 +28°C° 0 mm 2 mps 761 mmHg 64%
19:00 +27°C° 0 mm 2 mps 761 mmHg 70%
20:00 +26°C° 0 mm 2 mps 761 mmHg 73%
21:00 +24°C° 0 mm 1 mps 761 mmHg 77%
22:00 +23°C° 0 mm 1 mps 761 mmHg 80%
23:00 +23°C° 0 mm 1 mps 761 mmHg 82%

9 August, Sunday

Time Temperature Precipitation Wind Pressure Humidity
00:00 +22°C° 0 mm 1 mps 761 mmHg 83%
01:00 +22°C° 0 mm 1 mps 761 mmHg 85%
02:00 +20°C° 0 mm 2 mps 761 mmHg 88%
03:00 +20°C° 0 mm 3 mps 761 mmHg 92%
04:00 +19°C° 0 mm 3 mps 760 mmHg 95%
05:00 +19°C° 0.2 mm 4 mps 761 mmHg 94%
06:00 +19°C° 0.2 mm 4 mps 761 mmHg 93%
07:00 +19°C° 0.2 mm 5 mps 761 mmHg 92%
08:00 +19°C° 0.1 mm 5 mps 762 mmHg 88%
09:00 +19°C° 0.1 mm 5 mps 762 mmHg 85%
10:00 +20°C° 0.1 mm 5 mps 762 mmHg 81%
11:00 +21°C° 0 mm 5 mps 762 mmHg 74%
12:00 +22°C° 0 mm 5 mps 762 mmHg 66%
13:00 +23°C° 0 mm 5 mps 763 mmHg 59%
14:00 +23°C° 0 mm 5 mps 763 mmHg 58%
15:00 +23°C° 0 mm 5 mps 763 mmHg 56%
16:00 +23°C° 0 mm 5 mps 763 mmHg 55%
17:00 +21°C° 0 mm 5 mps 763 mmHg 59%
18:00 +20°C° 0 mm 5 mps 763 mmHg 63%
19:00 +19°C° 0 mm 5 mps 763 mmHg 66%
20:00 +16°C° 0 mm 5 mps 763 mmHg 71%
21:00 +15°C° 0 mm 5 mps 763 mmHg 76%
22:00 +13°C° 0 mm 4 mps 764 mmHg 81%
23:00 +12°C° 0 mm 4 mps 764 mmHg 85%
Show more